Location: Marsån
(66.4167°N, 22.2833°E)
Time: 10:16:01
(UTC+00:00)

NOSS 0 Rocket - Pass Details

Date: 24 February 2024
Orbit: 936 x 952 km, 70.0° (Epoch: 15 April)

Event Time Altitude Azimuth Distance (km) Brightness Sun altitude
Rises 16:50:00 0° 283° (WNW) 3,609 8.7 -9.3°
Reaches altitude 10° 16:52:34 10° 287° (WNW) 2,663 7.6 -9.5°
Maximum altitude 16:58:42 65° 9° (N) 1,031 4.1 -10.1°
Enters shadow 17:04:07 14° 90° (E) 2,394 5.4 -10.7°
